User: anonymous   Login
Location: Newark
(52.8662°N, 8.1982°W)
Time: 22:56:21
(UTC+00:00)
Language:

UNISAT 6 - Orbit

View from above orbital plane
View from above orbital plane
View from above satellite
View from above satellite

Ground track
Ground track

The orbit data is extracted from the following two-line orbital elements,

1 40012U 14033C   20028.55432676 +.00000137 +00000-0 +27599-4 0  9995
2 40012 097.7278 250.1392 0059687 095.2065 265.5959 14.74060844301668
Epoch (UTC): 28 January 2020 13:18:13
Eccentricity: 0.0059687
inclination: 97.7278°
perigee height: 606 km
apogee height: 690 km
right ascension of ascending node: 250.1392°
argument of perigee: 95.2065°
revolutions per day: 14.74060844
mean anomaly at epoch: 265.5959°
orbit number at epoch: 30166

The dashed part of the orbit path shows where the satellite is in the earth's shadow,  

DLR